| time (UTC) | temp C | wind direction | speed KPH | gust KPH | rain 1hr cm | rain 24hr cm | rain mn cm | humidity % | barometer mb |
| 20260508165339 | 11 | 87 | 0.0 | 0.0 | 0.00 | 0.00 | 0.00 | 45 | 1018.8 |
| 20260508164835 | 11 | 121 | 9.7 | 11.3 | 0.00 | 0.00 | 0.00 | 40 | 1018.4 |
| 20260508164332 | 11 | 82 | 1.6 | 1.6 | 0.00 | 0.00 | 0.00 | 43 | 1018.8 |
| 20260508163830 | 11 | 116 | 3.2 | 4.8 | 0.00 | 0.00 | 0.00 | 42 | 1018.4 |
| 20260508163328 | 12 | 94 | 1.6 | 1.6 | 0.00 | 0.00 | 0.00 | 43 | 1018.9 |
| 20260508162823 | 11 | 121 | 3.2 | 4.8 | 0.00 | 0.00 | 0.00 | 45 | 1018.8 |
| 20260508162320 | 12 | 88 | 0.0 | 0.0 | 0.00 | 0.00 | 0.00 | 45 | 1018.8 |
| 20260508161817 | 12 | 77 | 1.6 | 1.6 | 0.00 | 0.00 | 0.00 | 38 | 1018.9 |
| 20260508161314 | 12 | 106 | 1.6 | 3.2 | 0.00 | 0.00 | 0.00 | 36 | 1018.9 |
| 20260508160812 | 12 | 73 | 0.0 | 1.6 | 0.00 | 0.00 | 0.00 | 36 | 1019.1 |
| 20260508160310 | 11 | 82 | 0.0 | 0.0 | 0.00 | 0.00 | 0.00 | 37 | 1018.8 |
| 20260508155806 | 10 | 93 | 1.6 | 1.6 | 0.00 | 0.00 | 0.00 | 41 | 1019.2 |
| 20260508155306 | 11 | 96 | 1.6 | 3.2 | 0.00 | 0.00 | 0.00 | 41 | 1019.1 |
| 20260508154800 | 11 | 34 | 3.2 | 3.2 | 0.00 | 0.00 | 0.00 | 37 | 1019.1 |
| 20260508154258 | 11 | 103 | 1.6 | 3.2 | 0.00 | 0.00 | 0.00 | 41 | 1019.3 |
| 20260508153754 | 10 | 11 | 3.2 | 4.8 | 0.00 | 0.00 | 0.00 | 36 | 1019.2 |
| 20260508153252 | 10 | 101 | 0.0 | 0.0 | 0.00 | 0.00 | 0.00 | 40 | 1019.2 |
| 20260508152748 | 10 | 273 | 3.2 | 3.2 | 0.00 | 0.00 | 0.00 | 40 | 1019.2 |
| 20260508152244 | 11 | 80 | 0.0 | 0.0 | 0.00 | 0.00 | 0.00 | 37 | 1019.2 |
| 20260508151740 | 10 | 45 | 3.2 | 3.2 | 0.00 | 0.00 | 0.00 | 36 | 1019.4 |
| 20260508151237 | 11 | 126 | 8.0 | 9.7 | 0.00 | 0.00 | 0.00 | 34 | 1019.4 |
| 20260508150734 | 11 | 88 | 0.0 | 0.0 | 0.00 | 0.00 | 0.00 | 37 | 1019.3 |
| 20260508150231 | 10 | 111 | 1.6 | 3.2 | 0.00 | 0.00 | 0.00 | 39 | 1019.2 |
| 20260508145726 | 10 | 71 | 0.0 | 0.0 | 0.00 | 0.00 | 0.00 | 39 | 1019.3 |
| 20260508145223 | 10 | 81 | 0.0 | 0.0 | 0.00 | 0.00 | 0.00 | 38 | 1019.4 |
| 20260508144720 | 9 | 68 | 0.0 | 1.6 | 0.00 | 0.00 | 0.00 | 39 | 1019.2 |
| 20260508144218 | 9 | 78 | 0.0 | 0.0 | 0.00 | 0.00 | 0.00 | 36 | 1019.4 |
| 20260508143715 | 8 | 57 | 1.6 | 1.6 | 0.00 | 0.00 | 0.00 | 35 | 1019.2 |
| 20260508143212 | 9 | 83 | 0.0 | 1.6 | 0.00 | 0.00 | 0.00 | 37 | 1019.3 |
| 20260508142708 | 8 | 110 | 1.6 | 1.6 | 0.00 | 0.00 | 0.00 | 39 | 1019.2 |
| 20260508142205 | 8 | 53 | 3.2 | 3.2 | 0.00 | 0.00 | 0.00 | 38 | 1019.1 |
| 20260508141702 | 8 | 88 | 0.0 | 0.0 | 0.00 | 0.00 | 0.00 | 37 | 1019.2 |
| 20260508141159 | 7 | 87 | 0.0 | 0.0 | 0.00 | 0.00 | 0.00 | 38 | 1019.3 |
| 20260508140657 | 8 | 73 | 3.2 | 3.2 | 0.00 | 0.00 | 0.00 | 36 | 1019.1 |
| 20260508140153 | 8 | 72 | 3.2 | 4.8 | 0.00 | 0.00 | 0.00 | 37 | 1019.2 |
| 20260508135649 | 8 | 76 | 1.6 | 1.6 | 0.00 | 0.00 | 0.00 | 35 | 1019.3 |
| 20260508135145 | 8 | 88 | 0.0 | 0.0 | 0.00 | 0.00 | 0.00 | 32 | 1019.1 |
| 20260508134641 | 7 | 79 | 0.0 | 0.0 | 0.00 | 0.00 | 0.00 | 37 | 1019.3 |
| 20260508134139 | 8 | 77 | 0.0 | 0.0 | 0.00 | 0.00 | 0.00 | 34 | 1019.1 |
| 20260508133636 | 8 | 88 | 1.6 | 1.6 | 0.00 | 0.00 | 0.00 | 32 | 1019.1 |
| 20260508133133 | 7 | 85 | 1.6 | 1.6 | 0.00 | 0.00 | 0.00 | 34 | 1018.9 |
| 20260508132631 | 7 | 73 | 3.2 | 3.2 | 0.00 | 0.00 | 0.00 | 36 | 1019.0 |
| 20260508132127 | 7 | 87 | 0.0 | 1.6 | 0.00 | 0.00 | 0.00 | 39 | 1018.9 |
| 20260508131623 | 6 | 97 | 0.0 | 0.0 | 0.00 | 0.00 | 0.00 | 38 | 1018.9 |
| 20260508131120 | 6 | 67 | 1.6 | 1.6 | 0.00 | 0.00 | 0.00 | 32 | 1019.0 |
| 20260508130616 | 6 | 96 | 0.0 | 1.6 | 0.00 | 0.00 | 0.00 | 31 | 1018.9 |
| 20260508130113 | 6 | 85 | 0.0 | 0.0 | 0.00 | 0.00 | 0.00 | 32 | 1018.9 |
| 20260508125614 | 5 | 95 | 1.6 | 1.6 | 0.00 | 0.00 | 0.00 | 35 | 1019.0 |
| 20260508125112 | 5 | 86 | 0.0 | 0.0 | 0.00 | 0.00 | 0.00 | 37 | 1018.5 |
| 20260508124610 | 5 | 63 | 1.6 | 1.6 | 0.00 | 0.00 | 0.00 | 37 | 1018.6 |
| 20260508124106 | 4 | 63 | 0.0 | 0.0 | 0.00 | 0.00 | 0.00 | 43 | 1018.5 |
| 20260508123605 | 4 | 63 | 0.0 | 0.0 | 0.00 | 0.00 | 0.00 | 48 | 1018.8 |
| 20260508123102 | 3 | 63 | 0.0 | 0.0 | 0.00 | 0.00 | 0.00 | 48 | 1018.6 |
| 20260508122558 | 3 | 62 | 1.6 | 1.6 | 0.00 | 0.00 | 0.00 | 48 | 1018.5 |
| 20260508122055 | 3 | 65 | 0.0 | 0.0 | 0.00 | 0.00 | 0.00 | 58 | 1018.6 |
| 20260508121553 | 3 | 65 | 0.0 | 0.0 | 0.00 | 0.00 | 0.00 | 58 | 1018.4 |
| 20260508121051 | 3 | 70 | 0.0 | 0.0 | 0.00 | 0.00 | 0.00 | 58 | 1018.3 |
| 20260508120548 | 3 | 80 | 1.6 | 1.6 | 0.00 | 0.00 | 0.00 | 61 | 1018.1 |
| 20260508120047 | 3 | 55 | 1.6 | 1.6 | 0.00 | 0.00 | 0.00 | 63 | 1018.3 |
| 20260508115544 | 2 | 56 | 1.6 | 1.6 | 0.00 | 0.00 | 0.00 | 63 | 1018.4 |
| 20260508115040 | 2 | 61 | 0.0 | 0.0 | 0.00 | 0.00 | 0.00 | 65 | 1018.1 |
| 20260508114537 | 2 | 91 | 0.0 | 0.0 | 0.00 | 0.00 | 0.00 | 68 | 1018.2 |
| 20260508114033 | 2 | 68 | 0.0 | 0.0 | 0.00 | 0.00 | 0.00 | 68 | 1017.9 |
| 20260508113531 | 2 | 99 | 0.0 | 0.0 | 0.00 | 0.00 | 0.00 | 70 | 1018.1 |
| 20260508113029 | 2 | 66 | 0.0 | 0.0 | 0.00 | 0.00 | 0.00 | 72 | 1017.6 |
| 20260508112525 | 2 | 56 | 0.0 | 1.6 | 0.00 | 0.00 | 0.00 | 71 | 1017.7 |
| 20260508112022 | 2 | 56 | 1.6 | 1.6 | 0.00 | 0.00 | 0.00 | 72 | 1017.6 |
| 20260508111519 | 2 | 62 | 0.0 | 0.0 | 0.00 | 0.00 | 0.00 | 72 | 1017.3 |
| 20260508111015 | 2 | 33 | 3.2 | 3.2 | 0.00 | 0.00 | 0.00 | 73 | 1017.4 |
| 20260508110514 | 2 | 39 | 3.2 | 3.2 | 0.00 | 0.00 | 0.00 | 74 | 1017.3 |
| 20260508110009 | 2 | 68 | 0.0 | 1.6 | 0.00 | 0.00 | 0.00 | 75 | 1017.3 |
| 20260508105504 | 2 | 63 | 0.0 | 0.0 | 0.00 | 0.00 | 0.00 | 76 | 1017.3 |
| 20260508105002 | 2 | 82 | 0.0 | 0.0 | 0.00 | 0.00 | 0.00 | 76 | 1017.5 |
| 20260508104459 | 2 | 32 | 3.2 | 4.8 | 0.00 | 0.00 | 0.00 | 77 | 1017.3 |
| 20260508103956 | 2 | 24 | 3.2 | 3.2 | 0.00 | 0.00 | 0.00 | 78 | 1017.0 |
| 20260508103453 | 1 | 327 | 4.8 | 4.8 | 0.00 | 0.00 | 0.00 | 79 | 1016.8 |
| 20260508102949 | 1 | 59 | 0.0 | 0.0 | 0.00 | 0.00 | 0.00 | 79 | 1017.0 |
| 20260508102448 | 1 | 64 | 0.0 | 0.0 | 0.00 | 0.00 | 0.00 | 80 | 1016.9 |
| 20260508101945 | 1 | 53 | 1.6 | 1.6 | 0.00 | 0.00 | 0.00 | 80 | 1016.8 |
| 20260508101442 | 1 | 39 | 1.6 | 1.6 | 0.00 | 0.00 | 0.00 | 80 | 1016.8 |
| 20260508100939 | 1 | 49 | 1.6 | 1.6 | 0.00 | 0.00 | 0.00 | 81 | 1016.6 |
| 20260508100438 | 1 | 16 | 1.6 | 3.2 | 0.00 | 0.00 | 0.00 | 81 | 1016.6 |
| 20260508095934 | 2 | 67 | 0.0 | 0.0 | 0.00 | 0.00 | 0.00 | 82 | 1016.4 |
| 20260508095432 | 2 | 44 | 1.6 | 3.2 | 0.00 | 0.00 | 0.00 | 82 | 1016.3 |
| 20260508094928 | 2 | 66 | 0.0 | 0.0 | 0.00 | 0.00 | 0.00 | 81 | 1016.7 |
| 20260508094425 | 2 | 308 | 4.8 | 4.8 | 0.00 | 0.00 | 0.00 | 81 | 1016.3 |
| 20260508093922 | 2 | 72 | 0.0 | 1.6 | 0.00 | 0.00 | 0.00 | 81 | 1016.7 |
| 20260508093419 | 2 | 349 | 3.2 | 4.8 | 0.00 | 0.00 | 0.00 | 82 | 1016.6 |
| 20260508092917 | 2 | 38 | 1.6 | 1.6 | 0.00 | 0.00 | 0.00 | 82 | 1016.6 |
| 20260508092415 | 2 | 57 | 1.6 | 1.6 | 0.00 | 0.00 | 0.00 | 82 | 1016.6 |
| 20260508091913 | 2 | 66 | 1.6 | 1.6 | 0.00 | 0.00 | 0.00 | 83 | 1016.7 |
| 20260508091409 | 2 | 303 | 3.2 | 4.8 | 0.00 | 0.00 | 0.00 | 84 | 1016.4 |
| 20260508090907 | 2 | 34 | 4.8 | 6.4 | 0.00 | 0.00 | 0.00 | 85 | 1016.6 |
| 20260508090405 | 2 | 46 | 3.2 | 4.8 | 0.00 | 0.00 | 0.00 | 85 | 1016.4 |
| 20260508085900 | 1 | 64 | 1.6 | 1.6 | 0.00 | 0.00 | 0.00 | 87 | 1016.7 |
| 20260508085357 | 1 | 66 | 0.0 | 1.6 | 0.00 | 0.00 | 0.00 | 88 | 1016.3 |
| 20260508084854 | 1 | 9 | 3.2 | 3.2 | 0.00 | 0.00 | 0.00 | 89 | 1016.4 |
| 20260508084351 | 1 | 1 | 4.8 | 6.4 | 0.00 | 0.00 | 0.00 | 92 | 1016.4 |
| 20260508083849 | 1 | 63 | 0.0 | 0.0 | 0.00 | 0.00 | 0.00 | 94 | 1016.3 |
| 20260508083346 | 1 | 24 | 1.6 | 3.2 | 0.00 | 0.00 | 0.00 | 96 | 1016.3 |
| 20260508082845 | 1 | 65 | 0.0 | 1.6 | 0.00 | 0.00 | 0.00 | 97 | 1016.3 |
| 20260508082343 | 1 | 57 | 1.6 | 1.6 | 0.00 | 0.00 | 0.00 | 98 | 1016.6 |
| 20260508081840 | 1 | 58 | 1.6 | 1.6 | 0.00 | 0.00 | 0.00 | 99 | 1016.7 |
| 20260508081337 | 1 | 27 | 4.8 | 4.8 | 0.00 | 0.00 | 0.00 | 99 | 1016.6 |
| 20260508080834 | 1 | 64 | 3.2 | 4.8 | 0.00 | 0.00 | 0.00 | 99 | 1016.7 |
| 20260508080332 | 1 | 29 | 0.0 | 1.6 | 0.00 | 0.00 | 0.00 | 99 | 1016.3 |
| 20260508075828 | 1 | 56 | 1.6 | 1.6 | 0.00 | 0.00 | 0.00 | 99 | 1016.3 |
| 20260508075325 | 1 | 289 | 4.8 | 4.8 | 0.00 | 0.00 | 0.00 | 99 | 1016.3 |
| 20260508074823 | 1 | 55 | 1.6 | 3.2 | 0.00 | 0.00 | 0.00 | 99 | 1016.4 |
| 20260508074320 | 1 | 335 | 4.8 | 6.4 | 0.00 | 0.00 | 0.00 | 99 | 1016.4 |
| 20260508073817 | 1 | 62 | 1.6 | 4.8 | 0.00 | 0.00 | 0.00 | 99 | 1016.6 |
| 20260508073315 | 2 | 317 | 3.2 | 6.4 | 0.00 | 0.00 | 0.00 | 99 | 1016.6 |
| 20260508072811 | 2 | 41 | 1.6 | 3.2 | 0.00 | 0.00 | 0.00 | 99 | 1016.6 |
| 20260508072308 | 2 | 327 | 4.8 | 4.8 | 0.00 | 0.00 | 0.00 | 99 | 1016.4 |
| 20260508071805 | 2 | 119 | 3.2 | 6.4 | 0.00 | 0.00 | 0.00 | 99 | 1016.7 |
| 20260508071304 | 2 | 35 | 3.2 | 3.2 | 0.00 | 0.00 | 0.00 | 99 | 1016.4 |
| 20260508070800 | 2 | 21 | 4.8 | 4.8 | 0.00 | 0.00 | 0.00 | 99 | 1016.4 |
| 20260508070259 | 2 | 28 | 3.2 | 4.8 | 0.00 | 0.00 | 0.00 | 99 | 1016.4 |
| 20260508065756 | 2 | 62 | 1.6 | 1.6 | 0.00 | 0.00 | 0.00 | 99 | 1016.6 |
| 20260508065254 | 2 | 41 | 1.6 | 1.6 | 0.00 | 0.00 | 0.00 | 99 | 1016.6 |
| 20260508064752 | 2 | 39 | 3.2 | 4.8 | 0.00 | 0.00 | 0.00 | 99 | 1016.7 |
| 20260508064249 | 2 | 48 | 3.2 | 3.2 | 0.00 | 0.00 | 0.00 | 99 | 1016.8 |
| 20260508063746 | 3 | 340 | 6.4 | 6.4 | 0.00 | 0.00 | 0.00 | 99 | 1016.4 |
| 20260508063244 | 3 | 59 | 1.6 | 1.6 | 0.00 | 0.00 | 0.00 | 99 | 1016.6 |
| 20260508062741 | 3 | 47 | 3.2 | 4.8 | 0.00 | 0.00 | 0.00 | 99 | 1016.7 |
| 20260508062239 | 3 | 56 | 3.2 | 3.2 | 0.00 | 0.00 | 0.00 | 99 | 1016.6 |
| 20260508061736 | 3 | 23 | 3.2 | 4.8 | 0.00 | 0.00 | 0.00 | 99 | 1016.7 |
| 20260508061233 | 3 | 30 | 3.2 | 4.8 | 0.00 | 0.00 | 0.00 | 99 | 1016.6 |
| 20260508060729 | 3 | 40 | 3.2 | 3.2 | 0.00 | 0.00 | 0.00 | 99 | 1016.8 |
| 20260508060227 | 3 | 51 | 4.8 | 4.8 | 0.00 | 0.00 | 0.00 | 99 | 1016.8 |
| 20260508055722 | 3 | 79 | 1.6 | 3.2 | 0.00 | 0.00 | 0.00 | 99 | 1016.8 |
| 20260508055219 | 3 | 33 | 3.2 | 3.2 | 0.00 | 0.00 | 0.00 | 99 | 1016.9 |
| 20260508054716 | 3 | 75 | 1.6 | 1.6 | 0.00 | 0.00 | 0.00 | 99 | 1016.9 |
| 20260508054214 | 3 | 230 | 3.2 | 4.8 | 0.00 | 0.00 | 0.00 | 99 | 1016.9 |
| 20260508053710 | 3 | 49 | 3.2 | 4.8 | 0.00 | 0.00 | 0.00 | 99 | 1016.9 |
| 20260508053208 | 4 | 344 | 4.8 | 4.8 | 0.00 | 0.00 | 0.00 | 99 | 1016.8 |
| 20260508052705 | 3 | 314 | 4.8 | 6.4 | 0.00 | 0.00 | 0.00 | 99 | 1016.8 |
| 20260508052202 | 4 | 357 | 3.2 | 3.2 | 0.00 | 0.00 | 0.00 | 99 | 1016.9 |
| 20260508051658 | 4 | 350 | 4.8 | 4.8 | 0.00 | 0.00 | 0.00 | 99 | 1016.9 |
| 20260508051154 | 4 | 46 | 8.0 | 11.3 | 0.00 | 0.00 | 0.00 | 98 | 1016.9 |
| 20260508050650 | 4 | 81 | 1.6 | 1.6 | 0.00 | 0.00 | 0.00 | 99 | 1016.8 |
| 20260508050148 | 4 | 73 | 9.7 | 14.5 | 0.00 | 0.00 | 0.00 | 98 | 1016.8 |
| 20260508045643 | 5 | 41 | 3.2 | 3.2 | 0.00 | 0.00 | 0.00 | 99 | 1016.4 |
| 20260508045141 | 5 | 259 | 8.0 | 9.7 | 0.00 | 0.00 | 0.00 | 99 | 1016.3 |
| 20260508044638 | 5 | 282 | 6.4 | 9.7 | 0.00 | 0.00 | 0.00 | 98 | 1016.6 |
| 20260508044134 | 5 | 296 | 3.2 | 9.7 | 0.00 | 0.00 | 0.00 | 98 | 1016.3 |
| 20260508043631 | 5 | 29 | 4.8 | 6.4 | 0.00 | 0.00 | 0.00 | 99 | 1016.3 |
| 20260508043129 | 5 | 268 | 4.8 | 6.4 | 0.00 | 0.00 | 0.00 | 99 | 1016.4 |
| 20260508042625 | 5 | 29 | 4.8 | 6.4 | 0.00 | 0.00 | 0.00 | 99 | 1016.6 |
| 20260508042123 | 5 | 317 | 4.8 | 6.4 | 0.00 | 0.00 | 0.00 | 98 | 1016.6 |
| 20260508041618 | 5 | 299 | 9.7 | 12.9 | 0.00 | 0.00 | 0.00 | 98 | 1016.4 |
| 20260508041115 | 5 | 267 | 9.7 | 12.9 | 0.00 | 0.00 | 0.00 | 98 | 1016.3 |
| 20260508040612 | 5 | 288 | 6.4 | 9.7 | 0.00 | 0.00 | 0.00 | 98 | 1016.4 |
| 20260508040110 | 5 | 293 | 6.4 | 11.3 | 0.00 | 0.25 | 0.25 | 99 | 1016.4 |
| 20260508035607 | 5 | 66 | 4.8 | 6.4 | 0.00 | 0.25 | 0.25 | 98 | 1016.4 |
| 20260508035104 | 5 | 3 | 4.8 | 6.4 | 0.00 | 0.25 | 0.25 | 98 | 1016.4 |
| 20260508034601 | 5 | 342 | 6.4 | 11.3 | 0.00 | 0.25 | 0.25 | 98 | 1016.2 |
| 20260508034058 | 5 | 327 | 8.0 | 11.3 | 0.00 | 0.25 | 0.25 | 98 | 1016.2 |
| 20260508033555 | 5 | 23 | 4.8 | 6.4 | 0.00 | 0.25 | 0.25 | 98 | 1016.4 |
| 20260508033054 | 5 | 64 | 4.8 | 4.8 | 0.00 | 0.25 | 0.25 | 98 | 1016.4 |
| 20260508032549 | 5 | 318 | 9.7 | 12.9 | 0.00 | 0.25 | 0.25 | 98 | 1016.2 |
| 20260508032047 | 5 | 332 | 6.4 | 9.7 | 0.00 | 0.25 | 0.25 | 98 | 1016.4 |
| 20260508031544 | 5 | 296 | 3.2 | 6.4 | 0.00 | 0.25 | 0.25 | 98 | 1016.6 |
| 20260508031040 | 5 | 35 | 3.2 | 3.2 | 0.00 | 0.25 | 0.25 | 98 | 1016.4 |
| 20260508030537 | 5 | 46 | 4.8 | 4.8 | 0.00 | 0.25 | 0.25 | 98 | 1016.3 |
| 20260508030035 | 5 | 300 | 6.4 | 12.9 | 0.00 | 0.25 | 0.25 | 98 | 1016.2 |
| 20260508025530 | 5 | 57 | 1.6 | 1.6 | 0.00 | 0.25 | 0.25 | 98 | 1016.2 |
| 20260508025028 | 5 | 263 | 14.5 | 16.1 | 0.00 | 0.25 | 0.25 | 98 | 1016.3 |
| 20260508024524 | 5 | 55 | 3.2 | 9.7 | 0.00 | 0.25 | 0.25 | 98 | 1016.1 |
| 20260508024021 | 5 | 330 | 8.0 | 9.7 | 0.00 | 0.25 | 0.25 | 98 | 1016.1 |
| 20260508023517 | 5 | 14 | 8.0 | 9.7 | 0.00 | 0.25 | 0.25 | 98 | 1016.2 |
| 20260508023015 | 5 | 317 | 6.4 | 6.4 | 0.00 | 0.25 | 0.25 | 98 | 1016.2 |
| 20260508022510 | 5 | 285 | 6.4 | 4.8 | 0.00 | 0.25 | 0.25 | 98 | 1015.9 |
| 20260508022007 | 5 | 44 | 6.4 | 6.4 | 0.00 | 0.25 | 0.25 | 98 | 1016.1 |
| 20260508021503 | 5 | 285 | 4.8 | 6.4 | 0.00 | 0.25 | 0.25 | 98 | 1015.9 |
| 20260508020959 | 5 | 339 | 9.7 | 11.3 | 0.00 | 0.25 | 0.25 | 98 | 1016.0 |
| 20260508020457 | 5 | 292 | 4.8 | 9.7 | 0.00 | 0.25 | 0.25 | 98 | 1016.0 |
| 20260508015954 | 5 | 305 | 4.8 | 4.8 | 0.00 | 0.25 | 0.25 | 98 | 1015.5 |
| 20260508015452 | 5 | 32 | 4.8 | 4.8 | 0.00 | 0.25 | 0.25 | 98 | 1015.5 |
| 20260508014949 | 4 | 13 | 12.9 | 14.5 | 0.00 | 0.25 | 0.25 | 98 | 1015.6 |
| 20260508014445 | 4 | 302 | 4.8 | 9.7 | 0.00 | 0.25 | 0.25 | 98 | 1015.9 |
| 20260508013941 | 4 | 52 | 1.6 | 1.6 | 0.00 | 0.25 | 0.25 | 98 | 1015.6 |
| 20260508013437 | 4 | 268 | 6.4 | 9.7 | 0.00 | 0.25 | 0.25 | 98 | 1015.6 |
| 20260508012935 | 4 | 331 | 4.8 | 4.8 | 0.00 | 0.25 | 0.25 | 98 | 1015.3 |
| 20260508012432 | 4 | 266 | 6.4 | 6.4 | 0.00 | 0.25 | 0.25 | 98 | 1015.3 |
| 20260508011929 | 4 | 291 | 1.6 | 3.2 | 0.00 | 0.25 | 0.25 | 98 | 1015.3 |
| 20260508011427 | 4 | 218 | 3.2 | 4.8 | 0.00 | 0.25 | 0.25 | 98 | 1015.4 |
| 20260508010924 | 4 | 283 | 3.2 | 4.8 | 0.00 | 0.25 | 0.25 | 98 | 1015.2 |
| 20260508010421 | 4 | 340 | 3.2 | 4.8 | 0.00 | 0.25 | 0.25 | 98 | 1015.1 |
| 20260508005918 | 4 | 338 | 3.2 | 3.2 | 0.00 | 0.25 | 0.25 | 98 | 1014.7 |
| 20260508005415 | 4 | 300 | 6.4 | 6.4 | 0.00 | 0.25 | 0.25 | 98 | 1015.0 |
| 20260508004911 | 4 | 72 | 3.2 | 6.4 | 0.00 | 0.25 | 0.25 | 98 | 1014.8 |
| 20260508004408 | 4 | 324 | 3.2 | 4.8 | 0.00 | 0.25 | 0.25 | 98 | 1014.7 |
| 20260508003904 | 4 | 57 | 1.6 | 1.6 | 0.00 | 0.25 | 0.25 | 98 | 1014.7 |
| 20260508003401 | 4 | 323 | 4.8 | 4.8 | 0.00 | 0.25 | 0.25 | 98 | 1014.8 |
| 20260508002858 | 4 | 352 | 8.0 | 11.3 | 0.00 | 0.25 | 0.25 | 98 | 1014.8 |
| 20260508002355 | 4 | 56 | 4.8 | 6.4 | 0.00 | 0.25 | 0.25 | 98 | 1015.0 |
| 20260508001851 | 4 | 282 | 3.2 | 4.8 | 0.00 | 0.25 | 0.25 | 98 | 1014.6 |
| 20260508001347 | 5 | 59 | 1.6 | 1.6 | 0.00 | 0.25 | 0.25 | 98 | 1014.6 |
| 20260508000844 | 5 | 342 | 4.8 | 4.8 | 0.00 | 0.25 | 0.25 | 98 | 1014.7 |
| 20260508000342 | 5 | 305 | 3.2 | 3.2 | 0.00 | 0.25 | 0.25 | 98 | 1015.0 |
| 20260507235837 | 5 | 183 | 3.2 | 3.2 | 0.00 | 0.25 | 0.25 | 98 | 1015.0 |
| 20260507235334 | 5 | 298 | 8.0 | 11.3 | 0.00 | 0.25 | 0.25 | 98 | 1014.6 |
| 20260507234831 | 4 | 312 | 11.3 | 12.9 | 0.00 | 0.25 | 0.25 | 98 | 1015.0 |
| 20260507234328 | 4 | 300 | 6.4 | 6.4 | 0.00 | 0.25 | 0.25 | 98 | 1015.0 |
| 20260507233824 | 4 | 305 | 9.7 | 11.3 | 0.00 | 0.25 | 0.25 | 98 | 1015.0 |
| 20260507233322 | 5 | 316 | 8.0 | 9.7 | 0.00 | 0.25 | 0.25 | 98 | 1014.8 |
| 20260507232820 | 5 | 37 | 6.4 | 9.7 | 0.00 | 0.25 | 0.25 | 98 | 1014.8 |
| 20260507232316 | 5 | 12 | 4.8 | 6.4 | 0.00 | 0.25 | 0.25 | 98 | 1014.8 |
| 20260507231813 | 5 | 67 | 3.2 | 3.2 | 0.00 | 0.25 | 0.25 | 98 | 1014.7 |
| 20260507231310 | 5 | 68 | 3.2 | 4.8 | 0.00 | 0.25 | 0.25 | 98 | 1015.1 |
| 20260507230806 | 5 | 339 | 9.7 | 9.7 | 0.00 | 0.25 | 0.25 | 98 | 1014.8 |
| 20260507230304 | 5 | 53 | 1.6 | 4.8 | 0.00 | 0.25 | 0.25 | 98 | 1015.0 |
| 20260507225804 | 4 | 263 | 6.4 | 11.3 | 0.00 | 0.25 | 0.25 | 98 | 1014.8 |
| 20260507225300 | 4 | 288 | 4.8 | 11.3 | 0.00 | 0.25 | 0.25 | 98 | 1015.0 |
| 20260507224756 | 4 | 343 | 4.8 | 4.8 | 0.00 | 0.25 | 0.25 | 98 | 1014.7 |
| 20260507224253 | 4 | 3 | 3.2 | 3.2 | 0.00 | 0.25 | 0.25 | 98 | 1014.8 |
| 20260507223749 | 4 | 335 | 8.0 | 9.7 | 0.00 | 0.25 | 0.25 | 98 | 1014.7 |
| 20260507223246 | 4 | 53 | 3.2 | 3.2 | 0.00 | 0.25 | 0.25 | 98 | 1014.8 |
| 20260507222743 | 4 | 53 | 3.2 | 3.2 | 0.00 | 0.25 | 0.25 | 98 | 1014.7 |
| 20260507222239 | 4 | 251 | 4.8 | 4.8 | 0.00 | 0.25 | 0.25 | 98 | 1014.8 |
| 20260507221736 | 5 | 286 | 4.8 | 4.8 | 0.00 | 0.25 | 0.25 | 98 | 1014.6 |
| 20260507221232 | 5 | 276 | 4.8 | 6.4 | 0.00 | 0.25 | 0.25 | 98 | 1014.6 |
| 20260507220729 | 5 | 268 | 6.4 | 9.7 | 0.00 | 0.25 | 0.25 | 98 | 1014.4 |
| 20260507220227 | 5 | 313 | 6.4 | 9.7 | 0.00 | 0.25 | 0.25 | 98 | 1014.4 |
| 20260507215723 | 5 | 292 | 8.0 | 9.7 | 0.00 | 0.25 | 0.25 | 98 | 1014.3 |
| 20260507215221 | 5 | 308 | 6.4 | 4.8 | 0.18 | 0.25 | 0.25 | 98 | 1014.4 |
| 20260507214718 | 5 | 59 | 1.6 | 1.6 | 0.18 | 0.25 | 0.25 | 98 | 1014.3 |
| 20260507214215 | 5 | 55 | 1.6 | 1.6 | 0.00 | 0.23 | 0.23 | 98 | 1014.3 |
| 20260507213710 | 5 | 271 | 4.8 | 4.8 | 0.00 | 0.23 | 0.23 | 98 | 1014.0 |
| 20260507213208 | 5 | 274 | 4.8 | 6.4 | 0.00 | 0.23 | 0.23 | 98 | 1014.1 |
| 20260507212703 | 5 | 257 | 4.8 | 4.8 | 0.00 | 0.23 | 0.23 | 98 | 1014.1 |
| 20260507212200 | 5 | 355 | 6.4 | 9.7 | 0.13 | 0.23 | 0.23 | 97 | 1014.4 |
| 20260507211657 | 5 | 288 | 9.7 | 14.5 | 0.13 | 0.23 | 0.23 | 97 | 1014.3 |
| 20260507211153 | 5 | 280 | 8.0 | 11.3 | 0.00 | 0.20 | 0.20 | 97 | 1014.1 |
| 20260507210650 | 5 | 276 | 9.7 | 11.3 | 0.00 | 0.20 | 0.20 | 97 | 1014.0 |
| 20260507210147 | 5 | 56 | 6.4 | 9.7 | 0.18 | 0.20 | 0.20 | 97 | 1014.1 |
| 20260507205643 | 5 | 327 | 9.7 | 14.5 | 0.18 | 0.20 | 0.20 | 97 | 1014.0 |
| 20260507205140 | 6 | 328 | 4.8 | 6.4 | 0.00 | 0.18 | 0.18 | 97 | 1014.0 |
| 20260507204636 | 6 | 314 | 3.2 | 3.2 | 0.00 | 0.18 | 0.18 | 97 | 1014.0 |
| 20260507204134 | 6 | 269 | 9.7 | 9.7 | 0.00 | 0.18 | 0.18 | 97 | 1013.7 |
| 20260507203632 | 6 | 28 | 3.2 | 3.2 | 0.00 | 0.18 | 0.18 | 97 | 1013.9 |
| 20260507203129 | 6 | 63 | 0.0 | 0.0 | 0.00 | 0.18 | 0.18 | 97 | 1013.6 |
| 20260507202625 | 6 | 287 | 8.0 | 9.7 | 0.00 | 0.18 | 0.18 | 97 | 1013.8 |
| 20260507202121 | 6 | 272 | 6.4 | 6.4 | 0.00 | 0.18 | 0.18 | 97 | 1013.7 |
| 20260507201616 | 6 | 304 | 4.8 | 6.4 | 0.00 | 0.18 | 0.18 | 97 | 1013.8 |
| 20260507201114 | 6 | 284 | 6.4 | 6.4 | 0.00 | 0.18 | 0.18 | 97 | 1013.9 |
| 20260507200609 | 6 | 56 | 1.6 | 3.2 | 0.00 | 0.18 | 0.18 | 97 | 1013.7 |
| 20260507200105 | 7 | 300 | 4.8 | 4.8 | 0.00 | 0.18 | 0.18 | 97 | 1013.7 |
| 20260507195603 | 7 | 275 | 6.4 | 6.4 | 0.00 | 0.18 | 0.18 | 97 | 1013.5 |
| 20260507195100 | 7 | 55 | 0.0 | 1.6 | 0.00 | 0.18 | 0.18 | 97 | 1013.2 |
| 20260507194556 | 7 | 307 | 6.4 | 6.4 | 0.00 | 0.18 | 0.18 | 97 | 1013.7 |
| 20260507194052 | 7 | 303 | 8.0 | 9.7 | 0.00 | 0.18 | 0.18 | 97 | 1013.8 |
| 20260507193549 | 7 | 295 | 6.4 | 11.3 | 0.00 | 0.18 | 0.18 | 97 | 1013.8 |
| 20260507193046 | 7 | 48 | 1.6 | 1.6 | 0.00 | 0.18 | 0.18 | 97 | 1013.8 |
| 20260507192542 | 7 | 84 | 4.8 | 6.4 | 0.00 | 0.18 | 0.18 | 96 | 1013.9 |
| 20260507192039 | 7 | 270 | 8.0 | 11.3 | 0.00 | 0.18 | 0.18 | 97 | 1013.8 |
| 20260507191534 | 7 | 276 | 6.4 | 11.3 | 0.00 | 0.18 | 0.18 | 96 | 1014.0 |
| 20260507191032 | 7 | 282 | 6.4 | 6.4 | 0.00 | 0.18 | 0.18 | 96 | 1013.9 |
| 20260507190529 | 7 | 285 | 6.4 | 9.7 | 0.00 | 0.18 | 0.18 | 96 | 1014.0 |
| 20260507190028 | 7 | 46 | 4.8 | 9.7 | 0.00 | 0.18 | 0.18 | 96 | 1014.1 |
| 20260507185526 | 7 | 40 | 9.7 | 14.5 | 0.00 | 0.18 | 0.18 | 95 | 1014.3 |
| 20260507185022 | 7 | 322 | 8.0 | 11.3 | 0.00 | 0.18 | 0.18 | 95 | 1014.4 |
| 20260507184520 | 8 | 56 | 1.6 | 4.8 | 0.00 | 0.18 | 0.18 | 95 | 1014.4 |
| 20260507184018 | 8 | 294 | 4.8 | 9.7 | 0.00 | 0.18 | 0.18 | 93 | 1014.1 |
| 20260507183513 | 8 | 267 | 6.4 | 9.7 | 0.00 | 0.18 | 0.18 | 93 | 1014.3 |
| 20260507183011 | 8 | 276 | 8.0 | 11.3 | 0.00 | 0.18 | 0.18 | 93 | 1014.1 |
| 20260507182507 | 8 | 268 | 8.0 | 9.7 | 0.00 | 0.18 | 0.18 | 93 | 1014.0 |
| 20260507182003 | 8 | 299 | 14.5 | 16.1 | 0.00 | 0.18 | 0.18 | 94 | 1013.9 |
| 20260507181500 | 8 | 299 | 11.3 | 12.9 | 0.00 | 0.18 | 0.18 | 95 | 1013.8 |
| 20260507180956 | 8 | 326 | 6.4 | 9.7 | 0.00 | 0.18 | 0.18 | 94 | 1013.9 |
| 20260507180453 | 8 | 266 | 8.0 | 9.7 | 0.00 | 0.18 | 0.18 | 95 | 1014.0 |
| 20260507175949 | 8 | 9 | 3.2 | 4.8 | 0.00 | 0.18 | 0.18 | 95 | 1014.0 |
| 20260507175446 | 8 | 287 | 6.4 | 6.4 | 0.00 | 0.18 | 0.18 | 94 | 1014.0 |
| 20260507174944 | 8 | 268 | 4.8 | 6.4 | 0.00 | 0.18 | 0.18 | 94 | 1013.9 |
| 20260507174440 | 9 | 244 | 9.7 | 14.5 | 0.00 | 0.18 | 0.18 | 95 | 1013.9 |
| 20260507173938 | 8 | 354 | 9.7 | 12.9 | 0.00 | 0.18 | 0.18 | 95 | 1013.9 |
| 20260507173435 | 8 | 256 | 8.0 | 9.7 | 0.00 | 0.18 | 0.18 | 95 | 1013.8 |
| 20260507172932 | 8 | 286 | 3.2 | 4.8 | 0.00 | 0.18 | 0.18 | 94 | 1014.0 |
| 20260507172428 | 8 | 306 | 8.0 | 11.3 | 0.00 | 0.18 | 0.18 | 94 | 1014.1 |
| 20260507171924 | 9 | 281 | 6.4 | 6.4 | 0.00 | 0.18 | 0.18 | 92 | 1014.0 |
| 20260507171421 | 10 | 299 | 6.4 | 14.5 | 0.00 | 0.18 | 0.18 | 93 | 1013.8 |
| 20260507170918 | 10 | 266 | 4.8 | 9.7 | 0.00 | 0.18 | 0.18 | 92 | 1013.9 |
| 20260507170415 | 10 | 21 | 6.4 | 9.7 | 0.00 | 0.18 | 0.18 | 93 | 1014.0 |
| 20260507165911 | 10 | 23 | 4.8 | 6.4 | 0.00 | 0.18 | 0.18 | 94 | 1014.0 |
| 20260507165407 | 10 | 299 | 6.4 | 6.4 | 0.00 | 0.18 | 0.18 | 93 | 1013.8 |